Tracking 22438 objects as of 25-Feb-2021
HD Live streaming from Space Station
objects crossing your sky now

DELTA 1 DEB

Track DELTA 1 DEB now!
10-day predictions


NORAD ID: 21682
Int'l Code: 1975-052JJ
Perigee: 1,087.8 km
Apogee: 2,527.8 km
Inclination: 99.4 °
Period: 122.7 minutes
Semi major axis: 8178 km
RCS: 0.089 m2 (small)
Launch date: June 12, 1975
Source: United States (US)
Launch site: AIR FORCE WESTERN TEST RANGE (AFWTR)

Note: This is SATELLITE DEBRIS
aabbcc
Your satellite tracking list
Your tracking list is empty




NASA's NSSDC Master Catalog

Two Line Element Set (TLE):
1 21682U 75052JJ  21055.36804003  .00000446  00000-0  29191-2 0  9993
2 21682  99.3848 216.4227 0880316 244.0238 146.2554 11.73727637267461
Source of the keplerian elements: AFSPC